Regional Weather Roundup
Issued by NWS

Home | Current Version | Previous Version | Graphics & Text | Print | Product List | Glossary On
Versions: 1 2 3 4 5 6 7 8 9 10 11 12 13 14 15 16 17 18 19 20 21 22 23 24 25 26 27 28 29 30 31 32 33 34 35 36 37 38 39 40 41 42 43 44 45 46 47 48 49 50
000
ASUS43 KBIS 301401
RWRND

NORTH DAKOTA REGIONAL WEATHER ROUNDUP
NATIONAL WEATHER SERVICE BISMARCK ND
800 AM CST FRI JAN 30 2015

NOTE: "FAIR" INDICATES FEW OR NO CLOUDS BELOW 12,000 FEET WITH NO
SIGNIFICANT WEATHER AND/OR OBSTRUCTIONS TO VISIBILITY.


NDZ001>003-009>011-017-301500-
NORTHWEST NORTH DAKOTA

CITY           SKY/WX    TMP DP  RH WIND       PRES   REMARKS
WILLISTON      CLEAR     17  14  88 S5        30.16R WCI  10
MINOT          CLEAR     23  16  74 SW14      30.11S WCI  11
MINOT AFB      CLEAR     18  18  98 W6        30.12S WCI  10
$$

NDZ018>021-031>035-040>046-301500-
SOUTHWEST NORTH DAKOTA

CITY           SKY/WX    TMP DP  RH WIND       PRES   REMARKS
BISMARCK       CLEAR     17  15  92 E3        30.21F
DICKINSON      CLEAR     25  17  72 SW7       30.11S WCI  17
GARRISON         N/A     17  14  88 SE5       30.14F WCI  10
HETTINGER ARPT CLEAR     22  16  78 SW8       30.16F WCI  12
$$

NDZ004>008-012>016-024-026-027-054-301500-
NORTHEAST NORTH DAKOTA

CITY           SKY/WX    TMP DP  RH WIND       PRES   REMARKS
GRAND FORKS    CLOUDY    11   5  77 S14       30.35F WCI  -5
GRND FRKS AFB  CLOUDY    11   4  76 S14       30.34F WCI  -5
DEVILS LAKE    CLOUDY    19  16  86 S15       30.20F WCI   5
$$

NDZ022-023-025-028>030-036>039-047>053-301500-
SOUTHEAST NORTH DAKOTA

CITY           SKY/WX    TMP DP  RH WIND       PRES   REMARKS
FARGO          CLOUDY    12   5  73 SE12      30.41F WCI  -2
JAMESTOWN      CLOUDY    20  16  84 S15       30.25F WCI   6
$$



USA.gov is the U.S. government's official web portal to all federal, state and local government web resources and services.